STARLINK-11152, 60194

Orbit data source: Space-Track

STARLINK-11152, 60194 is a payload satellite owned by SpaceX/Seattle (US) in LEO that was launched on Wed, 03 Jul 2024 UTC via an FALCON 9 launch vehicle from the Air Force Eastern Test Range (AFETR). Payload-class satellites include a variety of spacecraft equipped with specific instruments for various scientific and technological missions. These include communications satellites like Starlink; space stations such as the ISS; scientific satellites like the Hubble; Earth observation satellites from companies like Planet Labs, Umbra, and HawkEye 360; GPS; miniature CubeSats for education and research; and military/defense satellites.

Loading next visibility...
Identifier
60194, 2024-124M
Orbit
LEO
Last TLE update
15 hours ago
Origin
Manufacturer
SpaceX/Seattle
Mission
Operational Commercial Communications
Bus & Motor
STARLINK V2M, Unknown motor
Mass
730 kg wet, ~700 kg dry
Launch date (UTC)
2024-07-03 (1 year ago)
Launch vehicle
FALCON 9
Launch site
Air Force Eastern Test Range (AFETR)
Object type
Payload
Rocket body
Debris
Shape & HBR
Box + 2 Pan, 29 m
Radar Cross Section
36.964 m², Large (>1 m²)

Expand to show TLE details & history

TLE from 15 hours ago
0 STARLINK-11152
1 60194U 24124M   25181.81375342 -.00000447  00000-0  11623-5 0  9997
2 60194  53.1582 322.9450 0000375  93.1163 266.9897 15.69704150 58164
Epoch: 2025-06-30T19:31Z
TLE epoch observation values (Epoch: 2025-06-30T19:31:48.295Z)
Latitude
-0.00009°
Longitude
110.87554°
Altitude
360.672 km
Speed
7.694 km/s
True Right ascension
21h 31m 46s
True Declination
0° 00' 00"
Sunlit
Object was in full shadow at epoch
Visualization orbit readout
Latitude
-36.10154°
Longitude
74.86714°
Altitude
371.509 km
Speed
7.686 km/s
Apparent Right ascension
15h 09m 55s
Apparent Declination
-62° 39' 60"
Sunlit
Object is in full shadow
Visualization observer readout
Local Sidereal Time
22:15:06
Azimuth
216.359° SW
Elevation
-41.977°
Doppler factor
1
Orbital elements
Apogee altitude
360.257 km
Perigee altitude
359.752 km
Semi-major axis
6,738.141 km
Eccentricity
0.00004
Inclination
53.1582°
RAAN
322.945°
Arg. of periapsis
93.1163°
True anomaly
Unknown
Mean anomaly
266.9897°
Eccentric anomaly
Unknown
Mean motion
3.92404 °/min
Orbital period
91.74 mins
BSTAR
0.0000011623
Loading maneuver chart data...
Loading SW <> Apogee altitude chart data...
Loading historical data...
Loading historical data...
Loading historical data...
Loading historical data...
Loading historical data...
Loading historical data...
Loading historical data...

STARLINK-11152 Visibility forecast

Observer location: undefined°, undefined°

Span
Click to sort rows by Start time (UTC) header in descending order
Start Az.
Max El. time (UTC)
Max El. Az.
Max El.
End time (UTC)
End Az.
4 mins2025-07-01 18:57:37.400Z308.85° NW2025-07-01 18:59:37.400Z142.106° SSE43.683°2025-07-01 19:01:37.400Z132.336° SE
|